Location: Gull Harbor
(47.1000°N, 122.9000°W)
Time: 03:08:06
(UTC-08:00)

ARIANE 6 FM1 Upper Stage - Visible Passes

Search period start: 09 December 2025 00:00
Search period end: 19 December 2025 00:00
Orbit: 522 x 611 km, 62.0° (Epoch: 09 December)

Date Brightness Start Highest point End Pass type
(mag) Time Alt. Az. Time Alt. Az. Time Alt. Az.
10 Dec 6.6 06:34:52 10° SE 06:35:45 11° ESE 06:36:37 10° E visible
11 Dec 5.9 06:33:32 10° SSE 06:35:59 16° ESE 06:38:26 10° E visible
12 Dec 5.4 06:33:05 10° S 06:36:17 23° ESE 06:39:27 10° ENE visible
13 Dec 4.6 06:32:57 10° S 06:36:36 33° ESE 06:40:11 10° ENE visible
14 Dec 3.7 06:33:02 10° SSW 06:36:56 48° SE 06:40:47 10° NE visible
15 Dec 2.8 06:33:16 10° SSW 06:37:18 71° SE 06:41:16 10° NE visible
16 Dec 5.7 04:57:17 10° SE 04:59:13 13° ESE 05:01:07 10° E visible
16 Dec 2.5 06:33:39 10° SW 06:37:42 81° NW 06:41:42 10° NE visible
17 Dec 5.2 04:56:34 10° SSE 04:59:26 19° ESE 05:02:18 10° ENE visible
17 Dec 2.6 06:34:09 10° WSW 06:38:08 57° NW 06:42:03 10° NE visible
18 Dec 4.5 04:58:58 26° SE 04:59:41 27° ESE 05:03:06 10° ENE visible
18 Dec 3.0 06:35:05 12° WSW 06:38:35 41° NW 06:42:23 10° NNE visible
